| time (UTC) | temp C | wind direction | speed KPH | gust KPH | rain 1hr cm | rain 24hr cm | rain mn cm | humidity % | barometer mb |
| 20260508184553 | 21 | 200 | 1.6 | 11.3 | 0.00 | 0.05 | 0.03 | 30 | 1015.3 |
| 20260508183049 | 21 | 191 | 4.8 | 16.1 | 0.00 | 0.05 | 0.03 | 31 | 1015.6 |
| 20260508181603 | 21 | 242 | 6.4 | 11.3 | 0.00 | 0.05 | 0.03 | 28 | 1015.7 |
| 20260508180049 | 20 | 96 | 3.2 | 9.7 | 0.00 | 0.05 | 0.03 | 30 | 1015.9 |
| 20260508174602 | 21 | 262 | 4.8 | 11.3 | 0.00 | 0.05 | 0.03 | 31 | 1016.2 |
| 20260508173040 | 21 | 219 | 1.6 | 11.3 | 0.00 | 0.05 | 0.03 | 30 | 1016.3 |
| 20260508171547 | 21 | 158 | 0.0 | 11.3 | 0.00 | 0.05 | 0.03 | 36 | 1016.5 |
| 20260508170045 | 20 | 262 | 1.6 | 8.0 | 0.00 | 0.05 | 0.03 | 37 | 1016.7 |
| 20260508164542 | 20 | 283 | 4.8 | 12.9 | 0.00 | 0.05 | 0.03 | 32 | 1016.8 |
| 20260508163041 | 21 | 0 | 1.6 | 9.7 | 0.00 | 0.05 | 0.03 | 34 | 1016.8 |
| 20260508161542 | 20 | 0 | 1.6 | 6.4 | 0.00 | 0.05 | 0.03 | 39 | 1017.3 |
| 20260508160042 | 19 | 0 | 1.6 | 12.9 | 0.00 | 0.05 | 0.03 | 34 | 1017.6 |
| 20260508154545 | 20 | 131 | 1.6 | 6.4 | 0.00 | 0.05 | 0.03 | 35 | 1017.6 |
| 20260508153043 | 20 | 0 | 0.0 | 3.2 | 0.00 | 0.05 | 0.03 | 40 | 1017.8 |
| 20260508151543 | 20 | 119 | 0.0 | 3.2 | 0.00 | 0.05 | 0.03 | 35 | 1017.9 |
| 20260508150041 | 19 | 41 | 0.0 | 1.6 | 0.00 | 0.05 | 0.03 | 47 | 1018.0 |
| 20260508144545 | 17 | 236 | 1.6 | 4.8 | 0.00 | 0.05 | 0.03 | 46 | 1018.1 |
| 20260508143048 | 18 | 107 | 0.0 | 3.2 | 0.00 | 0.05 | 0.03 | 55 | 1018.1 |
| 20260508141554 | 16 | 0 | 0.0 | 8.0 | 0.00 | 0.05 | 0.03 | 58 | 1018.0 |
| 20260508140041 | 16 | 186 | 0.0 | 8.0 | 0.00 | 0.05 | 0.03 | 54 | 1018.0 |
| 20260508134556 | 15 | 0 | 0.0 | 8.0 | 0.00 | 0.05 | 0.03 | 54 | 1017.8 |
| 20260508133046 | 16 | 0 | 0.0 | 0.0 | 0.00 | 0.05 | 0.03 | 58 | 1017.9 |
| 20260508131544 | 16 | 0 | 0.0 | 0.0 | 0.00 | 0.05 | 0.03 | 75 | 1017.8 |
| 20260508130042 | 14 | 0 | 0.0 | 0.0 | 0.00 | 0.05 | 0.03 | 88 | 1017.7 |
| 20260508124541 | 12 | 0 | 0.0 | 0.0 | 0.00 | 0.15 | 0.03 | 90 | 1017.6 |
| 20260508123051 | 10 | 0 | 0.0 | 0.0 | 0.00 | 0.15 | 0.03 | 100 | 1017.7 |
| 20260508121546 | 9 | 0 | 0.0 | 0.0 | 0.00 | 0.15 | 0.03 | 100 | 1017.4 |
| 20260508120051 | 7 | 0 | 0.0 | 0.0 | 0.00 | 0.15 | 0.03 | 100 | 1017.2 |
| 20260508114549 | 6 | 0 | 0.0 | 0.0 | 0.00 | 0.48 | 0.03 | 100 | 1017.1 |
| 20260508113104 | 4 | 0 | 0.0 | 0.0 | 0.00 | 0.48 | 0.03 | 99 | 1016.8 |
| 20260508111545 | 3 | 0 | 0.0 | 0.0 | 0.00 | 0.48 | 0.03 | 99 | 1016.5 |
| 20260508110041 | 3 | 0 | 0.0 | 0.0 | 0.00 | 0.48 | 0.03 | 98 | 1016.4 |
| 20260508104545 | 3 | 0 | 0.0 | 0.0 | 0.00 | 0.48 | 0.03 | 98 | 1016.2 |
| 20260508103047 | 3 | 0 | 0.0 | 0.0 | 0.00 | 0.48 | 0.03 | 98 | 1015.9 |
| 20260508101541 | 3 | 0 | 0.0 | 0.0 | 0.03 | 0.48 | 0.03 | 98 | 1015.7 |
| 20260508100042 | 3 | 0 | 0.0 | 0.0 | 0.03 | 0.48 | 0.03 | 98 | 1015.5 |
| 20260508094603 | 3 | 0 | 0.0 | 0.0 | 0.03 | 0.48 | 0.03 | 98 | 1015.4 |
| 20260508093046 | 3 | 0 | 0.0 | 0.0 | 0.00 | 0.46 | 0.00 | 98 | 1015.4 |
| 20260508091544 | 4 | 0 | 0.0 | 0.0 | 0.00 | 0.46 | 0.00 | 98 | 1015.2 |
| 20260508090049 | 4 | 0 | 0.0 | 0.0 | 0.00 | 0.46 | 0.00 | 98 | 1015.2 |
| 20260508084541 | 4 | 0 | 0.0 | 0.0 | 0.00 | 0.48 | 0.00 | 98 | 1015.1 |
| 20260508083042 | 5 | 0 | 0.0 | 0.0 | 0.00 | 0.48 | 0.00 | 98 | 1015.2 |
| 20260508081608 | 5 | 0 | 0.0 | 0.0 | 0.00 | 0.48 | 0.00 | 98 | 1015.0 |
| 20260508080045 | 5 | 0 | 0.0 | 0.0 | 0.00 | 0.48 | 0.00 | 97 | 1014.9 |
| 20260508074543 | 5 | 0 | 0.0 | 0.0 | 0.00 | 0.48 | 0.00 | 98 | 1014.8 |
| 20260508073052 | 5 | 0 | 0.0 | 0.0 | 0.00 | 0.48 | 0.00 | 97 | 1014.7 |
| 20260508071545 | 5 | 0 | 0.0 | 0.0 | 0.00 | 0.48 | 0.00 | 97 | 1014.6 |
| 20260508070053 | 5 | 0 | 0.0 | 0.0 | 0.00 | 0.48 | 0.00 | 97 | 1014.5 |
| 20260508064547 | 5 | 0 | 0.0 | 0.0 | 0.00 | 0.51 | 0.00 | 97 | 1014.3 |
| 20260508063053 | 6 | 0 | 0.0 | 0.0 | 0.00 | 0.51 | 0.00 | 97 | 1014.5 |
| 20260508061553 | 6 | 0 | 0.0 | 0.0 | 0.00 | 0.51 | 0.00 | 97 | 1014.3 |
| 20260508060043 | 6 | 0 | 0.0 | 0.0 | 0.00 | 0.51 | 0.00 | 97 | 1014.4 |
| 20260508054544 | 6 | 0 | 0.0 | 0.0 | 0.00 | 0.64 | 0.00 | 97 | 1014.3 |
| 20260508053044 | 6 | 0 | 0.0 | 0.0 | 0.00 | 0.64 | 0.00 | 96 | 1014.2 |
| 20260508051552 | 6 | 0 | 0.0 | 0.0 | 0.00 | 0.64 | 0.00 | 96 | 1014.2 |
| 20260508050043 | 6 | 0 | 0.0 | 0.0 | 0.00 | 0.64 | 0.00 | 96 | 1014.0 |
| 20260508044542 | 6 | 0 | 0.0 | 0.0 | 0.00 | 0.76 | 0.00 | 96 | 1014.0 |
| 20260508043041 | 7 | 0 | 0.0 | 0.0 | 0.00 | 0.76 | 0.00 | 95 | 1014.0 |
| 20260508041548 | 7 | 0 | 0.0 | 0.0 | 0.00 | 0.76 | 0.00 | 95 | 1013.9 |
| 20260508040053 | 7 | 0 | 0.0 | 0.0 | 0.00 | 0.76 | 0.00 | 95 | 1013.8 |
| 20260508034543 | 7 | 0 | 0.0 | 0.0 | 0.00 | 0.76 | 0.76 | 94 | 1013.8 |
| 20260508033042 | 7 | 0 | 0.0 | 0.0 | 0.00 | 0.76 | 0.76 | 94 | 1013.9 |
| 20260508031541 | 7 | 0 | 0.0 | 0.0 | 0.00 | 0.76 | 0.76 | 93 | 1013.8 |
| 20260508030041 | 8 | 0 | 0.0 | 3.2 | 0.00 | 0.76 | 0.76 | 92 | 1013.8 |
| 20260508024550 | 8 | 0 | 0.0 | 3.2 | 0.00 | 0.89 | 0.76 | 91 | 1013.6 |
| 20260508023043 | 8 | 53 | 0.0 | 1.6 | 0.00 | 0.89 | 0.76 | 91 | 1013.5 |
| 20260508021543 | 9 | 0 | 0.0 | 1.6 | 0.00 | 0.89 | 0.76 | 89 | 1013.3 |
| 20260508020042 | 9 | 312 | 0.0 | 4.8 | 0.00 | 0.89 | 0.76 | 89 | 1013.0 |
| 20260508014543 | 10 | 0 | 0.0 | 3.2 | 0.00 | 0.97 | 0.76 | 88 | 1012.7 |
| 20260508013048 | 11 | 0 | 0.0 | 1.6 | 0.00 | 0.97 | 0.76 | 85 | 1012.3 |
| 20260508011542 | 11 | 0 | 0.0 | 1.6 | 0.00 | 0.97 | 0.76 | 80 | 1012.2 |
| 20260508010041 | 12 | 0 | 0.0 | 1.6 | 0.00 | 0.97 | 0.76 | 72 | 1011.8 |
| 20260508004546 | 13 | 181 | 1.6 | 11.3 | 0.00 | 1.09 | 0.76 | 72 | 1011.6 |
| 20260508003044 | 13 | 44 | 3.2 | 6.4 | 0.00 | 1.09 | 0.76 | 71 | 1011.5 |
| 20260508001542 | 13 | 23 | 1.6 | 14.5 | 0.00 | 1.09 | 0.76 | 72 | 1011.4 |
| 20260508000042 | 14 | 0 | 0.0 | 3.2 | 0.00 | 1.09 | 0.76 | 76 | 1011.4 |
| 20260507234541 | 15 | 147 | 0.0 | 3.2 | 0.00 | 1.19 | 0.76 | 74 | 1011.2 |
| 20260507233048 | 15 | 95 | 0.0 | 6.4 | 0.00 | 1.19 | 0.76 | 71 | 1011.2 |
| 20260507231546 | 16 | 150 | 0.0 | 9.7 | 0.00 | 1.19 | 0.76 | 72 | 1011.1 |
| 20260507230048 | 16 | 63 | 3.2 | 9.7 | 0.00 | 1.19 | 0.76 | 74 | 1010.7 |
| 20260507224544 | 16 | 51 | 0.0 | 4.8 | 0.00 | 1.19 | 0.76 | 76 | 1010.3 |
| 20260507223041 | 16 | 52 | 1.6 | 9.7 | 0.00 | 1.19 | 0.76 | 75 | 1010.0 |
| 20260507221543 | 17 | 158 | 1.6 | 6.4 | 0.00 | 1.19 | 0.76 | 86 | 1009.7 |
| 20260507220042 | 17 | 131 | 0.0 | 1.6 | 0.00 | 1.19 | 0.76 | 86 | 1009.5 |
| 20260507214554 | 17 | 0 | 0.0 | 8.0 | 0.00 | 1.19 | 0.76 | 87 | 1009.4 |
| 20260507213044 | 17 | 140 | 3.2 | 12.9 | 0.00 | 1.19 | 0.76 | 87 | 1009.3 |
| 20260507211548 | 17 | 121 | 4.8 | 12.9 | 0.00 | 1.19 | 0.76 | 86 | 1008.9 |
| 20260507210049 | 18 | 141 | 1.6 | 12.9 | 0.00 | 1.19 | 0.76 | 86 | 1008.8 |
| 20260507204543 | 18 | 194 | 3.2 | 17.7 | 0.00 | 1.19 | 0.76 | 83 | 1008.5 |
| 20260507203058 | 20 | 91 | 4.8 | 11.3 | 0.00 | 1.19 | 0.76 | 82 | 1008.1 |
| 20260507201551 | 20 | 124 | 3.2 | 14.5 | 0.00 | 1.19 | 0.76 | 81 | 1007.9 |
| 20260507200103 | 21 | 183 | 9.7 | 14.5 | 0.00 | 1.19 | 0.76 | 79 | 1007.8 |
| 20260507194541 | 22 | 183 | 4.8 | 19.3 | 0.00 | 1.19 | 0.76 | 78 | 1007.7 |
| 20260507193047 | 25 | 131 | 3.2 | 9.7 | 0.03 | 1.19 | 0.76 | 69 | 1007.7 |
| 20260507191541 | 25 | 183 | 3.2 | 8.0 | 0.03 | 1.19 | 0.76 | 71 | 1007.8 |
| 20260507190056 | 23 | 110 | 0.0 | 6.4 | 0.03 | 1.19 | 0.76 | 87 | 1007.8 |